User: anonymous   Login
Location: Los Gatos B&B
(42.6926°N, 77.0646°W)
Time: 09:40:57
(UTC-04:00)
Language:

Cosmos 2263 Rocket - Orbit

View from above orbital plane
View from above orbital plane
View from above satellite
View from above satellite

Ground track
Ground track

The orbit data is extracted from the following two-line orbital elements,

1 22803U 93059B   16271.93000125  .00000153  00000-0  10012-3 0  9994
2 22803  70.9890  82.0640 0015262  61.2383 299.0272 14.16754626191137
Epoch (UTC): 27 September 2016 22:19:12
Eccentricity: 0.0015262
inclination: 70.9890°
perigee height: 825 km
apogee height: 847 km
right ascension of ascending node: 82.0640°
argument of perigee: 61.2383°
revolutions per day: 14.16754626
mean anomaly at epoch: 299.0272°
orbit number at epoch: 19113

The dashed part of the orbit path shows where the satellite is in the earth's shadow,  

DLR